Time,TemperatureF,DewpointF,PressureIn,WindDirection,WindDirectionDegrees,WindSpeedMPH,WindSpeedGustMPH,Humidity,HourlyPrecipIn,Conditions,Clouds,dailyrainin,SoftwareType,DateUTC
2013-04-18 00:23:00,23.0,19.0,30.22,NW,304,4.0,7.0,84,0.00,,,0.02,,2013-04-18 04:23:00,
2013-04-18 00:33:00,23.0,19.0,30.21,NW,304,3.0,5.0,84,0.00,,,0.02,,2013-04-18 04:33:00,
2013-04-18 00:43:00,22.0,18.0,30.21,NW,304,3.0,5.0,84,0.00,,,0.02,,2013-04-18 04:43:00,
2013-04-18 00:53:00,22.0,18.0,30.21,NW,304,3.0,5.0,84,0.00,,,0.02,,2013-04-18 04:53:00,
2013-04-18 01:00:00,22.0,18.0,30.19,NW,304,5.0,7.0,85,0.00,,,0.02,,2013-04-18 05:00:00,
2013-04-18 01:02:00,22.0,18.0,30.20,NW,304,4.0,5.0,85,0.00,,,0.02,,2013-04-18 05:02:00,
2013-04-18 01:12:00,22.0,18.0,30.19,NW,304,5.0,7.0,85,0.00,,,0.02,,2013-04-18 05:12:00,
2013-04-18 01:22:00,22.0,18.0,30.19,NW,304,5.0,7.0,85,0.00,,,0.02,,2013-04-18 05:22:00,
2013-04-18 01:33:00,22.0,18.0,30.19,NW,304,5.0,7.0,85,0.00,,,0.02,,2013-04-18 05:33:00,
2013-04-18 01:42:00,22.0,18.0,30.19,NW,304,5.0,7.0,85,0.00,,,0.02,,2013-04-18 05:42:00,
2013-04-18 01:52:00,22.0,18.0,30.19,NW,304,5.0,7.0,85,0.00,,,0.02,,2013-04-18 05:52:00,
2013-04-18 04:02:00,20.0,16.0,30.16,WNW,296,0.0,3.0,86,0.00,,,0.02,,2013-04-18 08:02:00,
2013-04-18 04:12:00,19.0,16.0,30.16,WNW,296,0.0,0.0,86,0.00,,,0.02,,2013-04-18 08:12:00,
2013-04-18 04:22:00,19.0,16.0,30.16,WNW,296,0.0,0.0,86,0.00,,,0.02,,2013-04-18 08:22:00,
2013-04-18 04:30:00,20.0,17.0,30.15,WNW,296,2.0,6.0,87,0.00,,,0.02,,2013-04-18 08:30:00,
2013-04-18 04:32:00,19.0,16.0,30.16,WNW,296,0.0,0.0,86,0.00,,,0.02,,2013-04-18 08:32:00,
2013-04-18 04:42:00,20.0,17.0,30.15,WNW,296,2.0,6.0,87,0.00,,,0.02,,2013-04-18 08:42:00,
2013-04-18 04:52:00,20.0,17.0,30.15,WNW,296,2.0,6.0,87,0.00,,,0.02,,2013-04-18 08:52:00,
2013-04-18 05:02:00,20.0,17.0,30.15,WNW,296,2.0,6.0,87,0.00,,,0.02,,2013-04-18 09:02:00,
2013-04-18 05:12:00,20.0,17.0,30.15,WNW,296,2.0,6.0,87,0.00,,,0.02,,2013-04-18 09:12:00,
2013-04-18 05:22:00,20.0,17.0,30.15,WNW,296,2.0,6.0,87,0.00,,,0.02,,2013-04-18 09:22:00,
2013-04-18 07:32:00,19.0,16.0,30.14,NW,320,3.0,6.0,86,0.00,,,0.02,,2013-04-18 11:32:00,
2013-04-18 07:42:00,19.0,16.0,30.14,NW,320,3.0,6.0,86,0.00,,,0.02,,2013-04-18 11:42:00,
2013-04-18 07:52:00,20.0,16.0,30.14,NW,308,4.0,8.0,84,0.00,,,0.02,,2013-04-18 11:52:00,
2013-04-18 08:00:00,19.0,15.0,30.14,NW,306,4.0,6.0,85,0.00,,,0.02,,2013-04-18 12:00:00,
2013-04-18 08:02:00,19.0,15.0,30.14,NW,308,3.0,5.0,84,0.00,,,0.02,,2013-04-18 12:02:00,
2013-04-18 08:12:00,19.0,15.0,30.14,NW,308,3.0,5.0,84,0.00,,,0.02,,2013-04-18 12:12:00,
2013-04-18 08:22:00,19.0,15.0,30.14,NW,306,4.0,6.0,85,0.00,,,0.02,,2013-04-18 12:22:00,
2013-04-18 08:32:00,19.0,15.0,30.14,NW,306,4.0,6.0,85,0.00,,,0.02,,2013-04-18 12:32:00,
2013-04-18 08:42:00,19.0,15.0,30.14,NW,306,4.0,6.0,85,0.00,,,0.02,,2013-04-18 12:42:00,
2013-04-18 08:52:00,19.0,15.0,30.14,NW,306,4.0,6.0,85,0.00,,,0.02,,2013-04-18 12:52:00,
2013-04-18 11:03:00,25.0,20.0,30.15,South,180,3.0,6.0,80,0.00,,,0.02,,2013-04-18 15:03:00,
2013-04-18 11:12:00,25.0,20.0,30.15,South,180,3.0,6.0,80,0.00,,,0.02,,2013-04-18 15:12:00,
2013-04-18 11:22:00,26.0,21.0,30.15,South,182,3.0,6.0,80,0.00,,,0.02,,2013-04-18 15:22:00,
2013-04-18 11:33:00,27.0,21.0,30.15,South,175,2.0,6.0,79,0.00,,,0.02,,2013-04-18 15:33:00,
2013-04-18 11:42:00,28.0,22.0,30.14,SSE,167,3.0,5.0,77,0.00,,,0.02,,2013-04-18 15:42:00,
2013-04-18 11:53:00,28.0,22.0,30.14,SSE,167,3.0,5.0,77,0.00,,,0.02,,2013-04-18 15:53:00,
2013-04-18 12:03:00,29.0,22.0,30.14,South,169,2.0,6.0,74,0.00,,,0.02,,2013-04-18 16:03:00,
2013-04-18 12:13:00,29.0,22.0,30.14,South,169,2.0,6.0,74,0.00,,,0.02,,2013-04-18 16:13:00,
2013-04-18 12:23:00,29.0,22.0,30.14,South,169,2.0,6.0,74,0.00,,,0.02,,2013-04-18 16:23:00,
2013-04-18 12:33:00,29.0,22.0,30.14,South,169,2.0,6.0,74,0.00,,,0.02,,2013-04-18 16:33:00,
2013-04-18 12:43:00,29.0,22.0,30.14,South,169,2.0,6.0,74,0.00,,,0.02,,2013-04-18 16:43:00,
2013-04-18 14:52:00,35.0,18.0,30.08,WSW,252,9.0,14.0,50,0.00,,,0.00,,2013-04-18 18:52:00,
2013-04-18 15:02:00,36.0,18.0,30.08,WNW,290,6.0,15.0,48,0.00,,,0.00,,2013-04-18 19:02:00,
2013-04-18 15:12:00,36.0,18.0,30.08,WNW,290,6.0,15.0,48,0.00,,,0.00,,2013-04-18 19:12:00,
2013-04-18 15:22:00,36.0,17.0,30.07,West,276,5.0,12.0,46,0.00,,,0.00,,2013-04-18 19:22:00,
2013-04-18 15:32:00,36.0,20.0,30.06,West,277,7.0,14.0,51,0.00,,,0.00,,2013-04-18 19:32:00,
2013-04-18 15:42:00,36.0,20.0,30.06,West,277,7.0,14.0,51,0.00,,,0.00,,2013-04-18 19:42:00,
2013-04-18 15:53:00,36.0,20.0,30.06,West,277,7.0,14.0,51,0.00,,,0.00,,2013-04-18 19:53:00,
2013-04-18 16:02:00,36.0,20.0,30.06,West,277,7.0,14.0,51,0.00,,,0.00,,2013-04-18 20:02:00,
2013-04-18 16:12:00,36.0,20.0,30.06,West,277,7.0,14.0,51,0.00,,,0.00,,2013-04-18 20:12:00,
2013-04-18 18:13:00,41.0,23.0,30.00,WSW,254,9.0,12.0,48,0.00,,,0.00,,2013-04-18 22:13:00,
2013-04-18 18:23:00,41.0,23.0,30.00,WSW,254,9.0,12.0,48,0.00,,,0.00,,2013-04-18 22:23:00,
2013-04-18 18:33:00,41.0,23.0,30.00,WNW,284,4.0,12.0,48,0.00,,,0.00,,2013-04-18 22:33:00,
2013-04-18 18:42:00,41.0,23.0,29.99,WSW,239,6.0,10.0,49,0.00,,,0.00,,2013-04-18 22:42:00,
2013-04-18 18:52:00,41.0,23.0,29.99,WSW,239,6.0,10.0,49,0.00,,,0.00,,2013-04-18 22:52:00,
2013-04-18 19:03:00,41.0,23.0,29.98,SW,234,6.0,9.0,49,0.00,,,0.00,,2013-04-18 23:03:00,
2013-04-18 19:11:00,41.0,23.0,29.98,SW,234,6.0,9.0,49,0.00,,,0.00,,2013-04-18 23:11:00,
2013-04-18 19:21:00,41.0,23.0,29.98,SW,234,6.0,9.0,49,0.00,,,0.00,,2013-04-18 23:21:00,
2013-04-18 19:32:00,41.0,23.0,29.98,SW,234,6.0,9.0,49,0.00,,,0.00,,2013-04-18 23:32:00,
2013-04-18 19:42:00,41.0,23.0,29.98,SW,234,6.0,9.0,49,0.00,,,0.00,,2013-04-18 23:42:00,
2013-04-18 21:52:00,40.0,25.0,29.94,SW,215,1.0,3.0,55,0.00,,,0.00,,2013-04-19 01:52:00,
2013-04-18 22:02:00,40.0,26.0,29.94,SW,215,1.0,3.0,56,0.00,,,0.00,,2013-04-19 02:02:00,
2013-04-18 22:11:00,40.0,26.0,29.94,SW,215,1.0,3.0,56,0.00,,,0.00,,2013-04-19 02:11:00,
2013-04-18 22:21:00,40.0,27.0,29.93,SW,215,1.0,3.0,59,0.00,,,0.00,,2013-04-19 02:21:00,
2013-04-18 22:31:00,39.0,25.0,29.94,WNW,283,4.0,6.0,57,0.00,,,0.00,,2013-04-19 02:31:00,
2013-04-18 22:32:00,39.0,27.0,29.93,SW,215,0.0,1.0,61,0.00,,,0.00,,2013-04-19 02:32:00,
2013-04-18 22:42:00,39.0,27.0,29.93,SW,215,0.0,1.0,61,0.00,,,0.00,,2013-04-19 02:42:00,
2013-04-18 22:52:00,39.0,25.0,29.94,WNW,283,4.0,6.0,57,0.00,,,0.00,,2013-04-19 02:52:00,
2013-04-18 23:01:00,39.0,25.0,29.94,WNW,283,4.0,6.0,57,0.00,,,0.00,,2013-04-19 03:01:00,
2013-04-18 23:11:00,39.0,25.0,29.94,WNW,283,4.0,6.0,57,0.00,,,0.00,,2013-04-19 03:11:00,
2013-04-18 23:21:00,39.0,25.0,29.94,WNW,283,4.0,6.0,57,0.00,,,0.00,,2013-04-19 03:21:00,